Wind_Speed
12 13 13 12 13 13 14 15 15 16 18 19 21 22 22 21 17 22 23 23 22 19 16 14 10 9 10 11 11 10 16 19 18 20 25 21 23 23 24 25 29 33 32 26 29
12 13 13 14 13 14 15 16 17 17 17 17 19 21 22 21 13 23 24 25 23 19 16 14 11 11 11 11 11 13 17 15 18 19 21 16 26 28 25 16 22 31 30 32 30
13 13 13 14 15 15 15 16 17 17 17 17 17 18 20 20 13 22 23 25 24 20 17 14 11 10 11 13 13 14 19 15 18 15 17 20 24 26 23 18 13 24 27 34 33
14 13 13 13 14 15 16 17 18 18 17 17 16 17 17 17 14 19 21 22 24 24 21 15 12 10 10 11 13 19 14 15 16 16 21 23 25 28 24 21 12 14 24 29 30
12 13 13 14 13 13 14 16 17 18 17 15 13 14 15 14 16 18 20 22 22 25 22 17 14 11 10 12 17 22 22 17 13 17 20 22 24 29 30 23 15 9 16 26 27
12 11 12 13 14 14 15 16 17 18 16 14 12 12 12 12 14 16 18 20 21 21 22 19 15 14 11 13 16 15 17 17 16 12 18 23 23 28 31 23 19 14 14 20 28
12 12 12 12 13 14 16 17 18 18 17 13 10 11 10 11 11 13 16 19 20 20 19 20 17 15 16 13 15 14 18 13 7 10 15 19 26 30 23 25 24 17 16 15 26
12 12 13 13 13 14 15 17 21 19 18 12 9 11 9 12 12 12 13 15 18 19 18 16 17 17 15 16 16 14 12 14 6 7 10 15 25 16 13 16 27 26 21 19 21
11 11 11 11 12 14 16 18 22 21 21 10 9 10 8 13 12 13 13 14 16 18 18 16 15 15 16 17 13 8 13 13 12 10 11 14 23 19 13 13 19 28 29 29 20
12 11 10 10 11 14 17 20 22 21 22 9 7 7 11 13 14 14 15 15 16 18 19 18 17 14 15 16 11 14 14 18 19 14 21 22 24 20 19 18 18 24 34 33 33
13 12 11 13 15 16 19 21 24 24 24 9 6 8 12 13 14 14 15 16 16 17 20 20 19 13 15 15 12 14 15 18 18 16 23 24 30 18 14 19 20 23 32 37 33
15 14 16 16 18 20 20 23 23 25 25 12 6 6 12 16 17 13 15 18 17 17 18 20 15 13 14 14 12 11 17 16 16 13 26 28 33 25 20 22 22 24 29 36 40
17 18 19 20 21 22 22 23 23 25 28 13 8 5 12 17 16 11 17 17 19 18 16 22 12 13 13 12 14 13 15 16 17 22 22 19 27 16 9 17 21 26 28 30 39
23 22 22 23 24 24 25 24 25 26 21 7 7 6 15 18 10 19 15 16 16 20 22 11 10 14 14 13 12 16 11 14 17 19 12 22 10 27 15 11 17 22 26 30 33
25 26 25 25 26 25 25 25 24 24 5 6 7 9 17 17 16 14 16 18 19 20 18 11 17 16 16 11 11 11 15 17 19 18 20 11 6 13 19 13 12 16 20 24 26
28 29 27 28 25 25 24 24 22 12 8 7 8 15 20 20 16 13 16 17 20 19 17 13 16 18 11 9 12 13 14 19 11 6 3 3 3 18 15 21 16 14 14 18 27
30 31 31 30 27 24 23 21 13 8 11 9 11 25 23 23 15 13 18 20 15 12 13 23 12 11 12 12 12 10 10 5 4 2 6 4 8 15 19 20 21 15 12 13 25
34 33 34 34 31 29 27 22 13 14 18 24 27 20 23 22 14 12 18 23 17 11 13 8 9 6 8 11 10 12 8 3 4 3 6 22 9 6 22 21 17 15 13 17 23
26 27 26 23 28 30 28 24 23 19 15 16 17 24 14 7 13 17 16 20 10 8 6 6 7 16 19 14 13 5 5 4 5 10 3 7 11 24 6 22 19 12 10 11 18
20 19 20 19 20 20 20 25 15 12 16 20 21 12 14 13 19 15 16 17 13 15 12 10 12 15 11 10 15 17 12 5 4 3 5 7 12 14 13 15 15 9 9 8 12
18 19 18 18 17 17 17 18 18 19 18 16 14 17 23 31 25 18 13 17 17 17 12 15 13 13 18 18 16 11 14 11 8 8 3 4 9 16 19 8 13 14 12 14 17
19 19 18 15 15 16 17 19 19 17 18 22 26 26 14 11 16 13 17 22 23 23 18 17 12 21 23 21 18 16 16 14 8 4 8 5 27 18 9 11 21 20 15 14 16
21 20 18 16 14 17 17 17 19 21 19 12 10 17 19 19 14 7 7 7 9 9 8 13 9 9 9 8 6 8 8 14 21 24 26 8 21 25 36 37 32 26 15 11 15
21 17 18 19 15 13 16 17 13 13 13 13 15 19 21 20 15 13 17 16 18 21 16 18 22 25 19 23 26 32 30 24 18 19 28 36 53 48 46 44 32 28 22 15 15
21 16 17 15 17 17 18 17 19 18 18 17 20 20 21 23 28 26 28 30 26 21 18 16 26 25 30 31 32 35 35 35 37 40 31 51 45 49 41 36 33 26 22 17 14
22 20 17 18 17 16 18 17 17 16 20 21 26 26 24 27 28 40 39 34 38 31 25 21 25 19 34 35 35 39 36 40 41 41 45 48 47 29 24 27 26 19 20 18 14
25 25 21 20 20 18 17 18 22 26 13 12 20 31 32 30 33 37 40 44 48 45 38 34 36 25 38 27 27 41 34 35 36 37 36 40 39 24 25 24 13 9 11 12 13
Wind_Direction
24 12 0 351 345 344 344 345 348 351 356 359 4 7 9 10 12 8 7 4 4 2 354 349 346 332 317 301 281 259 244 252 255 264 270 249 253 229 235 248 229 227 227 236 225
25 21 13 6 355 347 345 343 342 342 347 353 356 2 6 7 7 5 8 9 4 1 356 352 348 332 317 303 282 257 256 264 263 266 274 252 244 253 245 237 237 225 227 225 230
23 22 18 11 4 358 350 345 341 340 340 346 350 357 1 4 3 6 6 9 7 6 2 355 341 328 321 310 296 277 274 282 279 274 266 259 248 251 258 234 241 233 227 222 227
21 17 18 15 12 5 357 352 346 342 339 340 344 350 357 3 2 1 3 9 9 5 359 354 342 328 319 308 293 285 285 277 282 264 256 258 257 253 246 234 258 230 229 225 228
15 14 13 13 14 12 3 357 352 346 340 338 337 342 350 357 3 2 2 7 8 10 4 355 345 335 324 309 303 285 290 285 286 265 257 260 256 263 244 233 250 234 227 227 224
359 4 6 7 10 10 10 3 356 349 342 336 331 335 341 350 0 4 2 7 4 7 8 1 350 338 329 325 315 309 292 289 278 277 270 264 260 262 244 231 238 240 229 220 222
354 352 356 359 1 4 4 4 1 351 343 336 326 331 331 341 353 357 0 3 1 0 357 2 1 344 331 331 332 317 308 314 300 276 274 275 260 271 273 247 239 238 248 233 222
347 350 352 355 358 1 3 5 0 355 345 338 330 329 325 335 337 341 349 350 350 350 352 346 352 356 342 331 321 320 323 328 332 328 296 279 266 279 289 256 241 241 243 238 225
334 340 346 355 360 2 0 1 360 355 349 342 339 328 320 331 327 325 330 332 334 336 338 342 339 345 348 338 325 325 324 333 312 308 306 305 293 283 267 281 247 239 235 245 221
322 328 334 342 350 348 348 346 351 351 352 336 337 334 334 330 327 319 317 320 323 324 327 330 334 334 340 342 313 310 315 311 308 313 301 293 293 292 280 269 262 235 236 242 241
310 312 315 322 327 331 335 336 340 345 345 313 322 338 338 335 331 320 314 315 317 316 319 322 326 324 336 341 326 307 305 303 318 318 302 304 302 303 286 270 262 248 236 232 237
302 305 307 311 316 322 330 332 334 333 331 294 304 339 345 340 333 323 323 315 314 313 312 314 318 325 327 341 330 314 304 324 325 331 308 306 296 296 289 275 264 255 242 236 231
299 301 304 307 312 316 319 323 326 329 327 298 287 323 346 341 334 333 327 322 318 320 312 310 311 318 319 324 318 311 301 313 307 323 314 317 309 319 313 270 254 256 253 242 235
298 298 300 303 305 309 313 317 322 327 321 266 282 286 341 344 335 330 327 323 320 320 319 310 315 319 312 312 307 313 313 315 314 315 317 315 294 326 345 321 269 264 261 247 239
293 293 295 297 300 303 307 311 317 325 346 273 263 314 331 337 329 333 330 324 322 315 307 307 301 303 297 308 301 310 316 315 310 300 301 316 246 301 320 343 315 266 264 252 229
294 293 293 293 292 296 300 304 309 308 250 257 264 322 317 320 314 322 330 324 322 315 307 316 290 291 291 287 292 297 313 313 297 300 293 299 278 306 340 327 326 295 256 254 227
295 294 293 290 289 291 295 295 298 230 286 268 273 310 305 312 298 308 324 327 310 308 309 318 311 287 283 285 296 283 310 327 337 358 234 272 304 272 340 332 311 299 260 244 220
292 292 288 279 280 282 284 278 245 268 270 277 287 284 299 303 286 290 313 320 317 291 289 312 318 319 311 292 288 295 273 221 250 265 283 298 232 292 325 344 324 294 286 266 240
300 297 299 295 278 277 272 254 262 276 274 270 277 296 300 283 303 296 308 311 296 295 270 285 288 305 304 285 284 282 238 247 263 271 305 263 279 308 297 331 326 294 296 292 240
306 305 303 299 289 279 266 255 252 258 262 275 287 277 278 279 309 296 301 294 301 303 287 273 284 302 303 293 290 261 264 260 244 294 283 275 280 270 315 329 346 309 275 244 238
308 306 305 302 293 282 264 263 259 257 267 276 266 267 277 293 291 280 272 287 304 289 288 279 273 278 291 294 300 267 250 245 249 250 231 299 270 308 314 327 325 342 270 259 257
306 301 304 295 285 275 267 271 270 271 271 276 284 290 295 300 299 281 272 283 285 282 296 287 270 276 289 293 283 264 269 254 224 233 242 270 279 311 289 323 325 320 318 257 259
306 304 299 295 281 279 275 274 283 286 289 277 267 284 283 285 297 288 285 283 281 295 287 292 261 295 301 275 270 267 287 290 262 260 258 252 269 286 292 297 309 309 299 296 240
310 299 295 293 285 282 288 291 283 275 286 286 282 278 275 273 258 277 270 270 261 276 272 283 268 259 250 271 287 291 290 285 273 259 275 259 279 296 295 297 296 295 290 286 246
313 301 297 289 286 292 297 292 295 291 280 277 270 269 284 289 279 277 278 274 265 266 265 276 267 271 272 276 283 285 284 285 279 277 258 286 283 304 313 306 302 281 268 278 263
316 314 306 299 295 302 305 306 305 301 308 292 284 284 276 282 285 285 279 281 282 264 267 260 273 282 279 281 286 288 284 278 277 278 277 283 291 326 319 312 305 276 262 274 251
317 315 313 307 306 310 307 308 305 306 309 311 302 297 293 295 282 278 274 271 269 270 266 267 270 280 279 287 295 284 274 277 280 279 279 276 291 306 316 307 297 274 271 260 238
Height
3157 3155 3154 3152 3150 3148 3145 3143 3140 3138 3135 3132 3129 3126 3123 3119 3116 3114 3110 3107 3102 3097 3093 3091 3089 3088 3087 3087 3086 3085 3084 3081 3081 3080 3080 3085 3084 3084 3084 3085 3089 3091 3095 3099 3099
3157 3155 3153 3151 3149 3147 3145 3142 3140 3137 3134 3131 3128 3125 3122 3119 3116 3113 3110 3104 3100 3096 3093 3091 3088 3087 3086 3085 3084 3083 3080 3079 3078 3078 3077 3079 3078 3078 3080 3083 3084 3086 3089 3091 3093
3157 3155 3153 3151 3149 3147 3144 3141 3139 3136 3134 3131 3128 3125 3122 3119 3116 3112 3108 3104 3100 3096 3093 3090 3087 3086 3084 3084 3083 3080 3077 3077 3075 3076 3075 3073 3073 3073 3076 3079 3080 3082 3084 3086 3089
3158 3156 3153 3150 3148 3146 3144 3141 3138 3135 3133 3130 3127 3125 3121 3119 3118 3112 3108 3104 3100 3096 3093 3089 3087 3084 3082 3082 3080 3077 3075 3074 3073 3073 3071 3069 3068 3067 3072 3075 3077 3079 3080 3083 3085
3159 3156 3154 3151 3147 3145 3142 3140 3137 3134 3131 3129 3126 3124 3121 3118 3115 3111 3108 3104 3100 3096 3093 3090 3087 3083 3081 3080 3078 3074 3071 3071 3069 3069 3068 3066 3064 3064 3065 3073 3074 3076 3077 3079 3082
3159 3156 3154 3151 3148 3145 3141 3139 3135 3132 3129 3126 3124 3122 3120 3118 3114 3111 3108 3104 3100 3096 3093 3090 3087 3084 3080 3078 3074 3072 3069 3067 3066 3066 3064 3063 3062 3060 3062 3069 3070 3073 3073 3074 3077
3158 3156 3153 3151 3148 3145 3142 3138 3134 3131 3127 3124 3122 3120 3118 3117 3113 3110 3107 3103 3101 3097 3093 3090 3087 3084 3080 3077 3073 3071 3067 3065 3063 3063 3062 3059 3057 3055 3059 3063 3066 3069 3070 3071 3074
3158 3156 3153 3151 3148 3144 3142 3138 3134 3130 3126 3122 3120 3118 3116 3114 3111 3108 3106 3103 3100 3097 3094 3089 3086 3083 3079 3076 3072 3069 3067 3064 3063 3061 3059 3056 3053 3055 3056 3058 3061 3064 3066 3067 3069
3157 3154 3152 3150 3147 3144 3141 3137 3133 3129 3125 3121 3119 3117 3115 3112 3110 3107 3104 3102 3099 3096 3093 3089 3086 3082 3079 3075 3072 3068 3067 3065 3062 3060 3057 3056 3052 3053 3053 3053 3054 3057 3061 3063 3065
3156 3153 3151 3148 3145 3143 3140 3136 3132 3128 3124 3120 3118 3118 3114 3111 3108 3105 3102 3100 3098 3095 3092 3088 3085 3081 3078 3074 3071 3069 3066 3064 3062 3060 3056 3052 3050 3050 3050 3049 3049 3051 3054 3057 3059
3153 3151 3149 3147 3144 3141 3139 3135 3133 3128 3122 3120 3117 3114 3111 3109 3106 3103 3100 3097 3095 3094 3090 3086 3084 3080 3077 3073 3070 3068 3065 3062 3060 3058 3052 3048 3043 3044 3045 3043 3043 3044 3047 3051 3054
3151 3148 3147 3144 3142 3139 3136 3133 3129 3127 3120 3116 3114 3111 3109 3106 3103 3100 3098 3096 3093 3090 3088 3085 3081 3079 3076 3073 3070 3067 3064 3060 3057 3056 3053 3047 3037 3038 3039 3037 3037 3038 3040 3044 3048
3147 3146 3143 3141 3138 3136 3133 3130 3125 3121 3116 3111 3111 3109 3107 3104 3100 3098 3096 3092 3089 3086 3084 3081 3079 3076 3074 3072 3069 3067 3063 3060 3058 3053 3050 3044 3035 3032 3033 3031 3032 3033 3035 3038 3042
3144 3142 3139 3137 3136 3132 3130 3126 3123 3118 3113 3109 3107 3106 3104 3101 3098 3096 3093 3092 3087 3084 3081 3077 3075 3074 3072 3070 3069 3065 3063 3059 3057 3054 3050 3049 3041 3029 3030 3028 3027 3028 3029 3032 3036
3139 3137 3135 3131 3130 3128 3126 3122 3120 3117 3113 3107 3103 3102 3100 3100 3097 3093 3091 3087 3085 3082 3080 3078 3073 3071 3069 3068 3067 3065 3062 3059 3055 3053 3051 3046 3046 3029 3029 3027 3024 3023 3025 3028 3032
3134 3132 3130 3126 3124 3122 3120 3118 3117 3117 3107 3102 3100 3098 3097 3095 3092 3089 3087 3085 3082 3077 3075 3073 3071 3068 3066 3065 3064 3062 3060 3057 3053 3051 3051 3044 3046 3029 3028 3026 3022 3019 3020 3023 3028
3127 3125 3123 3121 3119 3117 3115 3114 3114 3110 3104 3099 3096 3095 3094 3091 3088 3086 3084 3081 3079 3076 3071 3070 3067 3065 3065 3064 3062 3061 3059 3057 3057 3054 3048 3042 3042 3028 3026 3024 3019 3016 3016 3019 3021
3120 3117 3114 3112 3111 3110 3109 3110 3107 3101 3099 3095 3093 3090 3089 3088 3085 3083 3080 3077 3074 3072 3070 3067 3065 3064 3063 3062 3062 3059 3060 3059 3062 3056 3046 3040 3033 3025 3024 3021 3017 3014 3011 3012 3014
3113 3110 3107 3104 3103 3103 3103 3100 3096 3096 3093 3091 3088 3085 3085 3084 3083 3080 3077 3073 3071 3070 3070 3066 3063 3062 3060 3059 3060 3057 3057 3057 3055 3051 3049 3035 3028 3023 3021 3019 3014 3012 3010 3007 3008
3108 3105 3102 3100 3098 3096 3096 3093 3092 3091 3088 3087 3085 3084 3082 3081 3081 3079 3075 3072 3069 3068 3066 3063 3061 3057 3057 3056 3055 3054 3055 3055 3054 3053 3046 3032 3027 3021 3019 3017 3013 3011 3010 3008 3008
3103 3100 3098 3095 3093 3092 3090 3090 3087 3086 3085 3085 3082 3079 3078 3076 3074 3074 3071 3070 3067 3065 3064 3062 3060 3056 3053 3052 3051 3051 3050 3051 3052 3050 3046 3039 3021 3018 3017 3015 3013 3011 3009 3008 3006
3100 3097 3094 3091 3091 3086 3084 3083 3083 3082 3082 3080 3078 3076 3073 3072 3070 3069 3067 3067 3064 3063 3061 3060 3056 3051 3049 3047 3045 3046 3046 3046 3047 3046 3043 3039 3013 3015 3014 3013 3012 3010 3007 3004 3003
3095 3091 3088 3087 3085 3082 3081 3081 3079 3076 3075 3075 3074 3072 3070 3069 3068 3063 3062 3062 3059 3059 3058 3056 3052 3049 3045 3045 3042 3040 3041 3042 3041 3038 3032 3039 3015 3012 3011 3009 3009 3007 3005 3003 3002
3092 3087 3083 3080 3079 3078 3077 3076 3076 3073 3073 3071 3069 3067 3064 3064 3065 3059 3056 3055 3054 3054 3053 3052 3047 3046 3043 3041 3043 3040 3039 3038 3038 3033 3027 3018 3005 3005 3004 3003 3004 3002 3001 3000 2999
3086 3083 3079 3077 3075 3073 3072 3070 3068 3068 3068 3066 3063 3062 3060 3058 3055 3054 3049 3046 3049 3048 3047 3047 3038 3040 3035 3035 3035 3032 3030 3029 3027 3022 3024 3001 3007 2997 2997 2996 2993 2994 2994 2995 2994
3082 3080 3077 3074 3071 3071 3068 3066 3064 3062 3061 3061 3057 3056 3056 3054 3053 3044 3043 3044 3037 3040 3039 3038 3031 3030 3023 3028 3027 3021 3021 3018 3014 3012 3008 3002 2996 2997 2994 2990 2987 2985 2987 2989 2989
3075 3073 3073 3071 3068 3067 3066 3062 3060 3057 3057 3053 3053 3050 3047 3048 3043 3038 3034 3031 3027 3026 3031 3032 3027 3027 3012 3021 3021 3006 3005 3006 3004 3001 2999 2996 2992 2992 2991 2988 2985 2982 2983 2983 2984